QPF
0.00 0.00 0.01 0.01 0.01 0.01 0.01 0.01 0.01 0.02 0.03 0.03 0.02 0.02 0.01 0.00 0.01 0.01 0.01 0.01 0.01 0.01 0.01 0.01 0.02 0.03 0.03 0.02 0.02 0.02 0.02 0.02 0.03 0.04 0.06 0.11 0.11 0.07 0.05 0.04 0.02 0.01 0.02 0.02
0.00 0.00 0.00 0.00 0.00 0.01 0.01 0.01 0.01 0.02 0.02 0.03 0.02 0.01 0.01 0.00 0.00 0.01 0.01 0.01 0.01 0.01 0.01 0.01 0.01 0.01 0.01 0.01 0.01 0.02 0.01 0.01 0.02 0.02 0.04 0.06 0.09 0.08 0.06 0.05 0.03 0.02 0.03 0.02
0.00 0.00 0.00 0.00 0.00 0.01 0.01 0.01 0.02 0.02 0.03 0.02 0.02 0.02 0.01 0.00 0.00 0.00 0.01 0.01 0.01 0.01 0.01 0.01 0.01 0.01 0.01 0.01 0.01 0.01 0.01 0.01 0.01 0.02 0.03 0.04 0.04 0.04 0.05 0.05 0.05 0.04 0.03 0.03
0.00 0.00 0.00 0.00 0.00 0.00 0.01 0.01 0.02 0.02 0.03 0.03 0.02 0.03 0.02 0.01 0.01 0.00 0.01 0.01 0.01 0.01 0.01 0.01 0.01 0.01 0.01 0.01 0.00 0.00 0.00 0.01 0.01 0.01 0.02 0.04 0.05 0.06 0.05 0.04 0.04 0.04 0.04 0.03
0.00 0.00 0.00 0.00 0.00 0.00 0.01 0.01 0.01 0.02 0.02 0.03 0.02 0.02 0.02 0.01 0.00 0.00 0.01 0.01 0.01 0.00 0.00 0.00 0.01 0.01 0.01 0.01 0.01 0.00 0.00 0.01 0.01 0.01 0.01 0.02 0.04 0.05 0.04 0.03 0.03 0.03 0.04 0.04
0.00 0.00 0.00 0.00 0.00 0.00 0.00 0.00 0.01 0.01 0.01 0.01 0.01 0.02 0.02 0.02 0.01 0.01 0.00 0.01 0.01 0.01 0.01 0.00 0.00 0.01 0.01 0.01 0.01 0.00 0.00 0.01 0.01 0.01 0.01 0.01 0.02 0.03 0.02 0.02 0.03 0.03 0.04 0.04
0.00 0.00 0.00 0.00 0.00 0.00 0.00 0.00 0.01 0.01 0.01 0.01 0.00 0.01 0.01 0.01 0.01 0.01 0.01 0.01 0.01 0.01 0.00 0.00 0.00 0.01 0.01 0.01 0.01 0.00 0.00 0.00 0.00 0.01 0.01 0.02 0.02 0.02 0.01 0.02 0.03 0.03 0.04 0.04
0.00 0.00 0.00 0.00 0.00 0.00 0.00 0.00 0.01 0.01 0.01 0.00 0.00 0.01 0.02 0.01 0.01 0.01 0.01 0.01 0.02 0.01 0.01 0.01 0.00 0.01 0.01 0.00 0.00 0.00 0.01 0.01 0.01 0.02 0.02 0.02 0.02 0.01 0.01 0.02 0.04 0.04 0.03 0.03
0.00 0.01 0.00 0.00 0.00 0.00 0.00 0.00 0.01 0.01 0.01 0.01 0.01 0.01 0.02 0.01 0.02 0.02 0.02 0.01 0.01 0.01 0.02 0.01 0.01 0.01 0.00 0.00 0.00 0.00 0.01 0.01 0.01 0.03 0.05 0.02 0.02 0.02 0.03 0.05 0.05 0.03 0.03 0.04
0.00 0.01 0.00 0.01 0.01 0.01 0.00 0.01 0.01 0.02 0.02 0.02 0.01 0.01 0.01 0.01 0.01 0.01 0.01 0.01 0.01 0.01 0.01 0.01 0.01 0.00 0.00 0.00 0.00 0.00 0.01 0.01 0.02 0.03 0.05 0.04 0.03 0.03 0.05 0.06 0.05 0.04 0.04 0.04
0.00 0.01 0.01 0.01 0.01 0.01 0.00 0.01 0.02 0.03 0.02 0.02 0.01 0.01 0.01 0.01 0.01 0.01 0.00 0.00 0.00 0.01 0.01 0.01 0.01 0.00 0.00 0.00 0.00 0.01 0.02 0.02 0.02 0.03 0.04 0.04 0.04 0.03 0.03 0.04 0.04 0.04 0.04 0.05
0.00 0.01 0.01 0.00 0.00 0.00 0.01 0.01 0.01 0.03 0.03 0.02 0.02 0.02 0.01 0.01 0.01 0.01 0.00 0.00 0.00 0.00 0.01 0.01 0.00 0.00 0.01 0.01 0.01 0.01 0.03 0.04 0.05 0.04 0.03 0.03 0.04 0.02 0.02 0.03 0.04 0.04 0.03 0.03
0.00 0.01 0.01 0.00 0.00 0.00 0.00 0.00 0.01 0.01 0.01 0.02 0.02 0.02 0.01 0.01 0.01 0.01 0.00 0.00 0.00 0.00 0.00 0.01 0.01 0.02 0.02 0.03 0.02 0.01 0.01 0.02 0.03 0.04 0.03 0.03 0.03 0.03 0.03 0.02 0.03 0.03 0.04 0.04
0.00 0.01 0.01 0.00 0.00 0.00 0.00 0.01 0.01 0.01 0.01 0.01 0.01 0.01 0.01 0.01 0.01 0.00 0.01 0.01 0.01 0.00 0.00 0.01 0.01 0.01 0.02 0.03 0.03 0.02 0.02 0.02 0.02 0.02 0.03 0.04 0.04 0.03 0.03 0.03 0.03 0.03 0.04 0.05
0.00 0.01 0.01 0.01 0.00 0.00 0.00 0.01 0.01 0.01 0.01 0.01 0.02 0.01 0.01 0.00 0.00 0.00 0.00 0.01 0.01 0.01 0.01 0.01 0.01 0.01 0.01 0.00 0.01 0.01 0.02 0.02 0.02 0.02 0.02 0.02 0.03 0.03 0.02 0.02 0.02 0.03 0.03 0.04
0.00 0.00 0.01 0.01 0.01 0.01 0.01 0.01 0.01 0.01 0.01 0.01 0.01 0.00 0.00 0.00 0.00 0.00 0.00 0.00 0.01 0.00 0.00 0.00 0.00 0.01 0.01 0.01 0.01 0.01 0.01 0.02 0.02 0.02 0.02 0.03 0.02 0.02 0.02 0.02 0.02 0.02 0.02 0.03
0.00 0.01 0.01 0.01 0.01 0.01 0.02 0.01 0.01 0.01 0.01 0.00 0.00 0.00 0.00 0.00 0.00 0.00 0.00 0.00 0.01 0.01 0.00 0.00 0.00 0.00 0.00 0.01 0.01 0.01 0.01 0.02 0.02 0.03 0.03 0.04 0.03 0.03 0.02 0.02 0.01 0.01 0.01 0.02
0.00 0.00 0.01 0.01 0.01 0.02 0.02 0.01 0.00 0.00 0.00 0.00 0.00 0.00 0.00 0.00 0.00 0.00 0.00 0.00 0.00 0.01 0.01 0.00 0.00 0.00 0.00 0.00 0.01 0.01 0.01 0.02 0.02 0.03 0.04 0.04 0.03 0.02 0.01 0.01 0.01 0.01 0.01 0.02
0.00 0.00 0.00 0.01 0.01 0.01 0.00 0.00 0.00 0.00 0.00 0.00 0.00 0.00 0.00 0.00 0.00 0.00 0.00 0.00 0.00 0.00 0.00 0.00 0.00 0.01 0.01 0.00 0.00 0.00 0.01 0.01 0.02 0.02 0.02 0.02 0.02 0.01 0.01 0.01 0.01 0.01 0.01 0.02
0.00 0.00 0.00 0.00 0.00 0.00 0.00 0.00 0.00 0.00 0.00 0.00 0.00 0.00 0.00 0.00 0.00 0.00 0.00 0.00 0.00 0.00 0.00 0.00 0.00 0.01 0.00 0.00 0.00 0.00 0.01 0.01 0.01 0.02 0.01 0.01 0.01 0.01 0.01 0.01 0.01 0.01 0.01 0.01
0.00 0.00 0.00 0.00 0.00 0.00 0.00 0.00 0.00 0.00 0.00 0.00 0.00 0.00 0.00 0.00 0.00 0.00 0.00 0.00 0.00 0.00 0.00 0.00 0.00 0.00 0.00 0.00 0.00 0.00 0.00 0.01 0.01 0.01 0.01 0.01 0.01 0.01 0.01 0.01 0.00 0.01 0.01 0.01
0.00 0.00 0.00 0.00 0.00 0.00 0.00 0.00 0.00 0.00 0.00 0.00 0.00 0.00 0.00 0.00 0.00 0.00 0.00 0.00 0.00 0.00 0.00 0.00 0.00 0.00 0.00 0.00 0.00 0.00 0.00 0.01 0.01 0.02 0.01 0.01 0.01 0.01 0.01 0.01 0.01 0.01 0.01 0.01
0.00 0.00 0.00 0.00 0.00 0.00 0.00 0.00 0.00 0.00 0.00 0.00 0.00 0.00 0.00 0.00 0.00 0.00 0.00 0.00 0.00 0.00 0.00 0.00 0.00 0.00 0.00 0.00 0.01 0.01 0.01 0.01 0.01 0.02 0.01 0.01 0.02 0.02 0.02 0.02 0.01 0.01 0.01 0.01
0.00 0.00 0.00 0.00 0.00 0.00 0.00 0.00 0.00 0.00 0.00 0.00 0.00 0.00 0.00 0.00 0.01 0.00 0.00 0.01 0.01 0.01 0.01 0.00 0.00 0.00 0.00 0.00 0.01 0.01 0.02 0.02 0.02 0.01 0.01 0.02 0.02 0.01 0.01 0.01 0.01 0.01 0.01 0.01
0.00 0.00 0.00 0.00 0.00 0.00 0.00 0.00 0.00 0.00 0.00 0.00 0.00 0.00 0.00 0.01 0.01 0.01 0.01 0.01 0.02 0.02 0.02 0.01 0.00 0.00 0.00 0.01 0.01 0.01 0.02 0.02 0.02 0.02 0.03 0.03 0.02 0.01 0.00 0.00 0.00 0.00 0.00 0.00
0.00 0.00 0.00 0.00 0.00 0.00 0.00 0.00 0.00 0.00 0.00 0.00 0.00 0.00 0.00 0.00 0.01 0.01 0.01 0.02 0.02 0.02 0.02 0.02 0.01 0.01 0.01 0.01 0.01 0.02 0.02 0.02 0.02 0.03 0.03 0.03 0.02 0.01 0.01 0.01 0.00 0.00 0.00 0.00
MSLP
1007.81 1008.32 1008.84 1009.35 1009.84 1010.31 1010.72 1011.05 1011.27 1011.35 1011.25 1010.96 1010.48 1009.85 1009.12 1008.37 1007.69 1007.15 1006.80 1006.68 1006.79 1007.08 1007.52 1008.04 1008.59 1009.12 1009.62 1010.08 1010.52 1010.97 1011.44 1011.94 1012.47 1013.01 1013.55 1014.05 1014.49 1014.87 1015.18 1015.45 1015.68 1015.91 1016.14 1016.40
1007.53 1008.02 1008.52 1009.03 1009.55 1010.07 1010.56 1010.98 1011.28 1011.41 1011.33 1011.02 1010.48 1009.76 1008.92 1008.06 1007.26 1006.64 1006.24 1006.09 1006.21 1006.54 1007.04 1007.63 1008.24 1008.84 1009.40 1009.92 1010.41 1010.90 1011.40 1011.93 1012.48 1013.05 1013.60 1014.11 1014.56 1014.95 1015.27 1015.55 1015.80 1016.04 1016.30 1016.59
1007.12 1007.60 1008.12 1008.67 1009.25 1009.85 1010.44 1010.96 1011.35 1011.53 1011.47 1011.12 1010.52 1009.69 1008.73 1007.74 1006.84 1006.13 1005.68 1005.53 1005.66 1006.03 1006.59 1007.25 1007.94 1008.61 1009.23 1009.80 1010.34 1010.86 1011.39 1011.93 1012.50 1013.07 1013.62 1014.13 1014.59 1014.98 1015.32 1015.61 1015.88 1016.15 1016.44 1016.76
1006.58 1007.08 1007.63 1008.24 1008.91 1009.63 1010.33 1010.96 1011.43 1011.66 1011.60 1011.22 1010.54 1009.61 1008.54 1007.44 1006.45 1005.67 1005.18 1005.02 1005.17 1005.59 1006.21 1006.93 1007.69 1008.42 1009.10 1009.72 1010.28 1010.82 1011.36 1011.92 1012.48 1013.05 1013.60 1014.11 1014.57 1014.97 1015.31 1015.62 1015.91 1016.21 1016.53 1016.88
1005.95 1006.46 1007.05 1007.73 1008.51 1009.34 1010.16 1010.90 1011.45 1011.73 1011.68 1011.27 1010.52 1009.51 1008.35 1007.16 1006.10 1005.28 1004.77 1004.61 1004.79 1005.26 1005.92 1006.70 1007.51 1008.29 1009.00 1009.64 1010.22 1010.77 1011.31 1011.86 1012.42 1012.97 1013.52 1014.02 1014.48 1014.88 1015.24 1015.57 1015.89 1016.22 1016.56 1016.94
1005.27 1005.77 1006.39 1007.14 1008.01 1008.95 1009.89 1010.72 1011.35 1011.68 1011.64 1011.21 1010.42 1009.36 1008.15 1006.92 1005.82 1004.99 1004.48 1004.35 1004.55 1005.05 1005.76 1006.57 1007.40 1008.20 1008.92 1009.57 1010.15 1010.69 1011.22 1011.75 1012.29 1012.84 1013.37 1013.87 1014.33 1014.74 1015.11 1015.46 1015.80 1016.15 1016.52 1016.92
1004.57 1005.04 1005.67 1006.46 1007.40 1008.43 1009.46 1010.38 1011.08 1011.44 1011.43 1011.01 1010.22 1009.15 1007.92 1006.70 1005.62 1004.80 1004.33 1004.22 1004.46 1004.99 1005.71 1006.53 1007.37 1008.16 1008.88 1009.51 1010.07 1010.59 1011.09 1011.60 1012.12 1012.65 1013.17 1013.67 1014.13 1014.55 1014.93 1015.29 1015.65 1016.02 1016.41 1016.82
1003.92 1004.32 1004.92 1005.73 1006.70 1007.78 1008.87 1009.85 1010.60 1011.01 1011.03 1010.64 1009.88 1008.85 1007.67 1006.50 1005.48 1004.72 1004.30 1004.24 1004.51 1005.05 1005.77 1006.58 1007.40 1008.16 1008.85 1009.44 1009.97 1010.46 1010.94 1011.43 1011.93 1012.45 1012.96 1013.45 1013.91 1014.33 1014.72 1015.09 1015.46 1015.83 1016.23 1016.65
1003.35 1003.66 1004.20 1004.97 1005.94 1007.03 1008.14 1009.15 1009.93 1010.38 1010.45 1010.11 1009.43 1008.48 1007.39 1006.32 1005.39 1004.72 1004.37 1004.35 1004.65 1005.19 1005.90 1006.68 1007.46 1008.18 1008.82 1009.38 1009.87 1010.33 1010.79 1011.25 1011.74 1012.25 1012.75 1013.24 1013.70 1014.12 1014.51 1014.89 1015.25 1015.63 1016.02 1016.44
1002.89 1003.08 1003.53 1004.24 1005.17 1006.23 1007.33 1008.33 1009.12 1009.60 1009.72 1009.46 1008.86 1008.03 1007.07 1006.12 1005.32 1004.75 1004.48 1004.52 1004.83 1005.37 1006.04 1006.78 1007.50 1008.17 1008.77 1009.29 1009.76 1010.20 1010.64 1011.10 1011.58 1012.08 1012.58 1013.06 1013.52 1013.94 1014.33 1014.70 1015.06 1015.43 1015.81 1016.22
1002.59 1002.65 1003.00 1003.62 1004.46 1005.46 1006.50 1007.47 1008.24 1008.74 1008.89 1008.71 1008.22 1007.52 1006.70 1005.91 1005.23 1004.78 1004.58 1004.66 1004.98 1005.49 1006.13 1006.81 1007.48 1008.10 1008.65 1009.15 1009.61 1010.05 1010.49 1010.96 1011.45 1011.95 1012.45 1012.93 1013.39 1013.80 1014.19 1014.54 1014.89 1015.25 1015.63 1016.03
1002.45 1002.40 1002.64 1003.14 1003.88 1004.78 1005.74 1006.64 1007.37 1007.85 1008.04 1007.92 1007.54 1006.96 1006.29 1005.63 1005.09 1004.73 1004.60 1004.71 1005.02 1005.50 1006.08 1006.71 1007.33 1007.91 1008.45 1008.94 1009.41 1009.87 1010.34 1010.83 1011.33 1011.85 1012.36 1012.84 1013.29 1013.70 1014.08 1014.43 1014.77 1015.12 1015.48 1015.87
1002.48 1002.34 1002.46 1002.86 1003.48 1004.25 1005.09 1005.89 1006.56 1007.00 1007.19 1007.12 1006.82 1006.36 1005.81 1005.28 1004.85 1004.57 1004.48 1004.60 1004.90 1005.33 1005.86 1006.43 1007.01 1007.57 1008.11 1008.62 1009.12 1009.62 1010.13 1010.66 1011.20 1011.75 1012.27 1012.76 1013.21 1013.62 1013.99 1014.34 1014.68 1015.02 1015.38 1015.76
1002.67 1002.45 1002.48 1002.75 1003.24 1003.88 1004.58 1005.26 1005.82 1006.21 1006.38 1006.32 1006.08 1005.70 1005.26 1004.82 1004.47 1004.25 1004.19 1004.30 1004.57 1004.96 1005.43 1005.96 1006.51 1007.06 1007.61 1008.16 1008.71 1009.28 1009.85 1010.44 1011.03 1011.60 1012.15 1012.66 1013.12 1013.53 1013.91 1014.25 1014.59 1014.93 1015.30 1015.68
1002.97 1002.68 1002.62 1002.79 1003.14 1003.63 1004.18 1004.71 1005.16 1005.45 1005.57 1005.51 1005.30 1004.97 1004.60 1004.23 1003.94 1003.75 1003.71 1003.80 1004.03 1004.37 1004.80 1005.30 1005.83 1006.39 1006.97 1007.57 1008.18 1008.82 1009.47 1010.13 1010.77 1011.39 1011.97 1012.51 1012.98 1013.41 1013.79 1014.15 1014.50 1014.85 1015.22 1015.61
1003.30 1002.97 1002.83 1002.88 1003.10 1003.44 1003.83 1004.20 1004.51 1004.70 1004.75 1004.66 1004.45 1004.15 1003.82 1003.50 1003.24 1003.08 1003.04 1003.12 1003.31 1003.62 1004.01 1004.48 1005.01 1005.59 1006.20 1006.86 1007.55 1008.26 1008.99 1009.72 1010.42 1011.10 1011.72 1012.28 1012.78 1013.23 1013.63 1014.00 1014.37 1014.74 1015.12 1015.52
1003.58 1003.21 1003.00 1002.95 1003.04 1003.22 1003.44 1003.66 1003.83 1003.90 1003.87 1003.73 1003.51 1003.22 1002.91 1002.63 1002.40 1002.26 1002.22 1002.29 1002.48 1002.76 1003.13 1003.59 1004.12 1004.72 1005.37 1006.08 1006.84 1007.63 1008.42 1009.22 1009.99 1010.71 1011.38 1011.98 1012.51 1012.99 1013.42 1013.81 1014.20 1014.59 1014.98 1015.38
1003.74 1003.33 1003.05 1002.90 1002.85 1002.89 1002.96 1003.03 1003.05 1003.02 1002.90 1002.71 1002.47 1002.19 1001.90 1001.65 1001.46 1001.35 1001.33 1001.41 1001.59 1001.87 1002.24 1002.70 1003.24 1003.86 1004.56 1005.31 1006.12 1006.96 1007.82 1008.67 1009.49 1010.27 1010.98 1011.62 1012.19 1012.70 1013.16 1013.58 1013.98 1014.38 1014.79 1015.19
1003.73 1003.28 1002.92 1002.67 1002.51 1002.40 1002.34 1002.27 1002.18 1002.04 1001.85 1001.62 1001.36 1001.09 1000.84 1000.62 1000.48 1000.41 1000.43 1000.54 1000.75 1001.05 1001.43 1001.91 1002.47 1003.11 1003.83 1004.61 1005.45 1006.33 1007.23 1008.12 1008.98 1009.80 1010.55 1011.23 1011.84 1012.38 1012.86 1013.31 1013.73 1014.14 1014.55 1014.95
1003.56 1003.05 1002.62 1002.27 1002.00 1001.78 1001.59 1001.42 1001.23 1001.01 1000.77 1000.51 1000.24 999.99 999.77 999.61 999.52 999.51 999.59 999.76 1000.01 1000.35 1000.77 1001.27 1001.85 1002.51 1003.24 1004.04 1004.89 1005.78 1006.69 1007.60 1008.49 1009.33 1010.12 1010.83 1011.47 1012.04 1012.56 1013.02 1013.45 1013.86 1014.26 1014.65
1003.25 1002.68 1002.18 1001.74 1001.38 1001.07 1000.79 1000.53 1000.27 1000.00 999.72 999.45 999.19 998.96 998.78 998.68 998.65 998.71 998.87 999.10 999.43 999.82 1000.29 1000.83 1001.43 1002.10 1002.83 1003.62 1004.46 1005.34 1006.25 1007.16 1008.05 1008.90 1009.71 1010.44 1011.11 1011.71 1012.24 1012.72 1013.15 1013.56 1013.94 1014.31
1002.89 1002.25 1001.68 1001.18 1000.74 1000.36 1000.03 999.71 999.41 999.11 998.81 998.53 998.27 998.07 997.93 997.88 997.91 998.05 998.28 998.60 998.99 999.45 999.98 1000.56 1001.18 1001.86 1002.59 1003.36 1004.17 1005.02 1005.90 1006.78 1007.66 1008.51 1009.32 1010.07 1010.76 1011.37 1011.92 1012.40 1012.83 1013.23 1013.59 1013.94
1002.55 1001.85 1001.22 1000.66 1000.18 999.76 999.39 999.05 998.72 998.41 998.10 997.81 997.56 997.37 997.26 997.24 997.33 997.52 997.82 998.21 998.68 999.21 999.79 1000.42 1001.07 1001.75 1002.47 1003.21 1003.99 1004.79 1005.63 1006.48 1007.32 1008.16 1008.96 1009.71 1010.40 1011.02 1011.58 1012.06 1012.49 1012.87 1013.22 1013.54
1002.29 1001.53 1000.86 1000.27 999.77 999.34 998.96 998.62 998.29 997.96 997.65 997.35 997.09 996.89 996.77 996.76 996.88 997.11 997.45 997.90 998.43 999.03 999.67 1000.33 1001.02 1001.71 1002.41 1003.12 1003.86 1004.62 1005.40 1006.20 1007.00 1007.81 1008.59 1009.33 1010.02 1010.65 1011.20 1011.68 1012.11 1012.47 1012.80 1013.11
1002.09 1001.31 1000.62 1000.03 999.54 999.12 998.76 998.43 998.11 997.78 997.45 997.12 996.83 996.60 996.45 996.43 996.52 996.76 997.13 997.62 998.20 998.84 999.53 1000.24 1000.95 1001.65 1002.35 1003.04 1003.74 1004.45 1005.18 1005.92 1006.68 1007.44 1008.20 1008.92 1009.60 1010.22 1010.77 1011.26 1011.67 1012.04 1012.36 1012.65
1001.92 1001.13 1000.46 999.90 999.45 999.07 998.75 998.44 998.13 997.80 997.45 997.09 996.75 996.46 996.25 996.17 996.24 996.45 996.81 997.31 997.92 998.60 999.33 1000.08 1000.82 1001.54 1002.24 1002.92 1003.58 1004.25 1004.93 1005.62 1006.33 1007.05 1007.77 1008.46 1009.13 1009.74 1010.29 1010.77 1011.18 1011.55 1011.87 1012.16
Thickness
5735 5727 5720 5722 5725 5722 5718 5713 5710 5712 5716 5712 5708 5706 5709 5712 5710 5709 5710 5710 5709 5709 5711 5712 5712 5712 5712 5711 5711 5709 5708 5707 5705 5703 5701 5699 5697 5697 5696 5694 5693 5691 5690 5689
5724 5718 5723 5725 5722 5718 5714 5709 5707 5709 5711 5708 5705 5702 5707 5708 5707 5707 5707 5707 5707 5707 5708 5707 5707 5708 5707 5707 5707 5705 5704 5703 5702 5700 5699 5697 5695 5694 5692 5689 5688 5687 5685 5684
5717 5719 5722 5718 5713 5710 5710 5707 5706 5703 5704 5705 5701 5698 5702 5706 5706 5704 5704 5704 5705 5703 5703 5703 5703 5703 5703 5703 5702 5702 5700 5699 5698 5697 5696 5694 5691 5689 5687 5684 5683 5682 5680 5679
5718 5720 5716 5712 5710 5709 5703 5710 5706 5701 5697 5696 5697 5687 5698 5701 5700 5700 5700 5700 5701 5702 5701 5700 5700 5699 5699 5699 5699 5698 5697 5696 5694 5693 5692 5690 5686 5684 5683 5682 5679 5677 5676 5674
5713 5714 5711 5706 5708 5709 5706 5707 5704 5701 5697 5694 5695 5688 5695 5699 5695 5697 5699 5698 5699 5700 5699 5698 5697 5696 5696 5696 5694 5694 5693 5692 5690 5689 5687 5685 5683 5682 5680 5677 5674 5673 5672 5670
5715 5717 5714 5710 5711 5709 5705 5701 5698 5697 5695 5683 5691 5686 5687 5696 5695 5696 5697 5697 5696 5697 5696 5695 5695 5693 5692 5691 5690 5689 5688 5687 5686 5684 5683 5681 5678 5676 5674 5671 5669 5669 5668 5667
5706 5709 5712 5712 5703 5702 5702 5694 5684 5681 5681 5684 5690 5684 5687 5696 5696 5694 5693 5695 5694 5694 5692 5691 5690 5688 5687 5686 5685 5684 5683 5682 5682 5680 5679 5677 5675 5673 5671 5668 5666 5665 5664 5662
5695 5696 5704 5706 5702 5697 5697 5695 5681 5673 5677 5683 5684 5680 5690 5695 5694 5694 5693 5692 5691 5689 5689 5688 5686 5685 5683 5683 5681 5680 5679 5678 5678 5676 5675 5673 5671 5669 5667 5665 5664 5662 5660 5659
5695 5694 5703 5702 5703 5701 5693 5692 5695 5685 5683 5677 5682 5684 5688 5692 5690 5690 5689 5688 5686 5686 5685 5684 5683 5682 5681 5679 5677 5676 5675 5674 5673 5672 5671 5669 5667 5665 5663 5662 5661 5658 5657 5655
5699 5690 5696 5697 5698 5694 5696 5693 5686 5679 5669 5668 5676 5679 5682 5683 5685 5686 5686 5684 5684 5683 5682 5681 5680 5679 5678 5676 5675 5673 5672 5670 5668 5667 5666 5664 5663 5661 5659 5658 5655 5654 5653 5651
5696 5688 5687 5689 5686 5686 5684 5682 5682 5680 5677 5668 5667 5675 5687 5685 5685 5683 5683 5683 5682 5680 5679 5678 5676 5676 5674 5673 5670 5669 5667 5665 5664 5662 5661 5659 5658 5656 5655 5653 5651 5650 5649 5647
5690 5688 5683 5685 5688 5688 5687 5684 5681 5672 5671 5671 5668 5672 5686 5685 5683 5681 5679 5679 5679 5678 5676 5675 5673 5671 5669 5667 5665 5664 5662 5660 5658 5657 5655 5654 5653 5651 5649 5647 5646 5645 5645 5644
5685 5681 5675 5674 5675 5679 5678 5678 5678 5677 5673 5669 5664 5670 5680 5680 5679 5677 5675 5674 5674 5673 5672 5671 5668 5666 5664 5662 5661 5659 5657 5655 5653 5651 5649 5648 5647 5646 5644 5643 5642 5641 5640 5640
5681 5680 5675 5670 5674 5676 5672 5671 5671 5671 5667 5667 5668 5671 5674 5674 5672 5672 5672 5670 5670 5668 5667 5665 5663 5661 5659 5658 5656 5654 5652 5650 5648 5646 5644 5642 5641 5639 5639 5638 5637 5636 5635 5635
5677 5674 5674 5674 5673 5671 5670 5669 5669 5667 5668 5666 5669 5669 5673 5672 5669 5669 5668 5666 5664 5662 5661 5660 5658 5656 5654 5653 5651 5649 5646 5644 5642 5640 5639 5637 5635 5633 5632 5632 5632 5631 5630 5629
5671 5669 5668 5665 5665 5665 5663 5667 5667 5665 5666 5665 5665 5666 5672 5670 5667 5665 5663 5661 5658 5657 5655 5654 5653 5651 5649 5647 5644 5642 5640 5639 5637 5635 5633 5631 5629 5627 5626 5626 5625 5625 5623 5623
5664 5663 5659 5660 5661 5657 5656 5666 5664 5664 5665 5664 5661 5666 5664 5660 5658 5658 5657 5656 5653 5651 5649 5648 5647 5645 5643 5641 5639 5636 5635 5633 5631 5629 5627 5625 5624 5622 5620 5619 5619 5617 5616 5616
5658 5657 5656 5654 5651 5643 5664 5669 5666 5661 5661 5662 5661 5659 5657 5655 5654 5653 5653 5650 5648 5645 5643 5641 5640 5638 5636 5635 5633 5631 5629 5628 5626 5623 5621 5619 5618 5616 5614 5613 5612 5611 5610 5609
5654 5651 5649 5647 5645 5652 5659 5659 5657 5654 5653 5657 5654 5652 5651 5650 5649 5648 5647 5643 5641 5639 5637 5634 5633 5631 5630 5628 5626 5624 5622 5620 5618 5616 5614 5613 5611 5610 5608 5607 5606 5605 5604 5603
5642 5646 5644 5640 5635 5639 5653 5656 5655 5650 5646 5652 5649 5646 5644 5643 5640 5641 5640 5636 5634 5632 5630 5627 5625 5624 5622 5620 5619 5616 5614 5613 5611 5609 5608 5607 5605 5604 5603 5602 5600 5599 5598 5597
5635 5635 5635 5636 5635 5645 5650 5648 5645 5636 5643 5645 5644 5640 5638 5635 5636 5635 5632 5629 5627 5624 5622 5620 5618 5616 5615 5613 5612 5610 5607 5605 5603 5602 5601 5599 5598 5598 5597 5595 5594 5592 5591 5589
5637 5634 5633 5633 5628 5634 5643 5639 5637 5640 5642 5638 5635 5634 5631 5629 5627 5625 5623 5621 5619 5616 5614 5612 5610 5608 5607 5605 5604 5602 5599 5597 5595 5594 5592 5591 5590 5590 5589 5587 5585 5584 5582 5581
5631 5635 5635 5634 5635 5638 5638 5637 5636 5634 5631 5629 5627 5625 5622 5620 5618 5616 5615 5613 5611 5609 5607 5604 5602 5600 5599 5597 5596 5595 5592 5589 5587 5586 5584 5583 5582 5581 5580 5579 5577 5576 5574 5573
5625 5623 5623 5624 5628 5628 5627 5627 5625 5624 5621 5620 5619 5616 5614 5611 5610 5608 5607 5606 5603 5601 5598 5597 5595 5593 5591 5589 5588 5587 5584 5581 5579 5578 5577 5576 5574 5573 5572 5570 5569 5568 5566 5565
5616 5614 5615 5618 5621 5619 5618 5617 5616 5614 5613 5611 5610 5608 5606 5604 5602 5600 5598 5597 5595 5592 5590 5588 5587 5586 5584 5581 5579 5578 5576 5574 5572 5570 5568 5567 5566 5565 5563 5562 5560 5559 5558 5556
5608 5608 5609 5613 5616 5614 5613 5611 5608 5606 5604 5603 5601 5599 5598 5596 5594 5592 5591 5589 5586 5584 5581 5579 5578 5577 5575 5573 5571 5569 5567 5566 5564 5563 5561 5559 5558 5556 5554 5553 5551 5547 5545 5543